[[{"header":{"parameterUnit":"m.s-1","parameterCategory":2,"la1":30.2992,"la2":30.254,"lo1":-89.0895,"lo2":-89.0443,"dy":0.0025,"dx":0.0025,"nx":19,"ny":19,"refTime":"2026-05-22T09:00:00:Z","depth":"0","parameterNumber":2,"parameterNumberName":"U-component_of_CURRENTS"},"data":[0,0,0,0.1243,0.1243,0.1218,0.1218,0.1266,0.1267,0,0,0,0,0,0,0,0,0,0,0,0.1251,0.1251,0.1243,0.1243,0.1218,0.1218,0.1266,0.1267,0,0,0,0,0,0,0,0,0,0,0,0.1251,0.1251,0.1251,0.1243,0.1218,0.1218,0.1266,0.1265,0,0,0,0,0,0,0,0,0,0,0.128,0.127,0.1251,0.1251,0.1242,0.1218,0.1218,0.1264,0.1265,0.13,0,0.1291,0,0.1282,0.1272,0.1272,0,0,0,0.1245,0.1269,0.1267,0.1251,0.1242,0.1218,0.123,0.1264,0.1265,0.1302,0.1292,0.1293,0.1283,0.1272,0.1272,0.1283,0.1283,0,0,0.1246,0.1246,0.1266,0.1267,0.1232,0.123,0.1229,0.1264,0.1263,0.1292,0.1294,0.1283,0.1273,0.1273,0.1283,0.1283,0,0,0,0.1249,0.1247,0.1242,0.1266,0.1256,0.123,0.1228,0.1261,0.1261,0.1294,0.1284,0.1273,0.1274,0.1284,0.1283,0.1226,0,0,0,0.125,0.1249,0.1242,0.1242,0.1255,0.1246,0.1224,0.1258,0.1261,0.1284,0.1273,0.1275,0.1284,0.1284,0.1229,0.1205,0,0,0,0.1253,0.1249,0.1245,0.1242,0.1231,0.1245,0.1246,0.1258,0.1256,0.1272,0.1275,0.1285,0.1284,0.1231,0.1209,0.1203,0,0,0,0.1256,0.1239,0.1245,0.1216,0.1231,0.1192,0.1245,0.1225,0.123,0.1273,0.1284,0.1283,0.1232,0.1212,0.1205,0.1122,0.1106,0,0,0.1235,0.1236,0.1216,0.1221,0.117,0.1196,0.1155,0.119,0.1231,0.128,0.128,0.1228,0.121,0.1204,0.1062,0.1048,0,0,0,0.1209,0.1195,0.1179,0.1151,0.1132,0.1115,0.1137,0.116,0.1192,0.123,0.1223,0.1213,0.1211,0.1165,0.1153,0.0965,0.1278,0.1279,0.1279,0.1183,0.1163,0.1119,0.109,0.1067,0.106,0.1063,0.1104,0.1145,0.1149,0.1163,0.1113,0.1061,0.1052,0.0857,0.1158,0.1157,0.1157,0.1157,0.1137,0.1107,0.1077,0.1033,0.1012,0.0989,0.101,0.1038,0.1071,0.1106,0.1108,0.1101,0.1035,0.0833,0.1153,0.1154,0.1154,0.1155,0.1155,0.1119,0.1101,0.1073,0.101,0.0967,0.0952,0.0932,0.0968,0.1022,0.102,0.0994,0.0994,0.0823,0.1024,0.1024,0.1024,0.1024,0.1024,0.1024,0.1114,0.1083,0.1042,0.0985,0.0946,0.0904,0.0892,0.0895,0.09,0.0925,0.0925,0.0762,0.1073,0.1086,0.1021,0.1022,0.1022,0.1022,0.1022,0.1084,0.1082,0.102,0.098,0.089,0.0822,0.0816,0.0767,0.0783,0.0772,0.0585,0.0885,0.0902,0.0911,0.092,0.0817,0.0817,0.0817,0.0817,0.1074,0.1066,0.0984,0.0919,0.0846,0.0782,0.0665,0.0601,0.0492,0.0389,0.0392,0.0359,0.0376,0.0362,0.0383,0.0381,0.0143,0.0142,0.0141,0.1048,0.103,0.0967,0.0904,0.0819,0.0728,0.0577,0.0376,0.0163,0.0097,0.0139,0.0168,0.0107,0.0149,0.0125,0.0169,0.0168,0,0]},{"header":{"parameterUnit":"m.s-1","parameterCategory":2,"la1":30.2992,"la2":30.254,"lo1":-89.0895,"lo2":-89.0443,"dy":0.0025,"dx":0.0025,"nx":19,"ny":19,"refTime":"2026-05-22T09:00:00:Z","depth":"0","parameterNumber":3,"parameterNumberName":"V-component_of_CURRENTS"},"data":[0,0,0,0.0153,0.0153,0.0191,0.0191,0.0283,0.0283,0,0,0,0,0,0,0,0,0,0,0,0.0141,0.0141,0.0153,0.0153,0.0191,0.0191,0.0282,0.0283,0,0,0,0,0,0,0,0,0,0,0,0.0141,0.0141,0.0141,0.0154,0.0191,0.0191,0.0282,0.0246,0,0,0,0,0,0,0,0,0,0,0.0205,0.0192,0.0141,0.0141,0.0154,0.0191,0.0191,0.0244,0.0248,0.0274,0,0.0272,0,0.0276,0.0289,0.029,0,0,0,0.0165,0.0188,0.0188,0.0141,0.0154,0.0191,0.0177,0.0246,0.0251,0.028,0.0274,0.0277,0.0278,0.029,0.029,0.0378,0.0379,0,0,0.0163,0.0162,0.0184,0.0191,0.0155,0.0176,0.0178,0.0249,0.0257,0.0274,0.0279,0.0279,0.0291,0.0291,0.0378,0.0378,0,0,0,0.0149,0.0161,0.0158,0.0187,0.0188,0.0177,0.0179,0.0255,0.025,0.028,0.028,0.0291,0.0292,0.0378,0.0378,0.0393,0,0,0,0.0148,0.0152,0.0157,0.0159,0.0186,0.0218,0.0184,0.0245,0.0253,0.028,0.0291,0.0293,0.0377,0.0378,0.0392,0.0401,0,0,0,0.0141,0.0152,0.015,0.0159,0.0168,0.0216,0.0217,0.0247,0.0253,0.029,0.0293,0.0377,0.0378,0.0391,0.0399,0.0447,0,0,0,0.0147,0.0144,0.015,0.0156,0.0168,0.02,0.0217,0.0252,0.0282,0.0292,0.0377,0.0378,0.039,0.0398,0.0445,0.048,0.049,0,0,0.0145,0.0144,0.0148,0.0153,0.0175,0.0196,0.0245,0.0287,0.0302,0.0359,0.036,0.0392,0.0399,0.0446,0.0519,0.0528,0,0,0,0.0148,0.0149,0.0158,0.0173,0.0197,0.0241,0.0279,0.0305,0.0356,0.0321,0.0402,0.0406,0.0435,0.0453,0.0461,0.0459,0.0381,0.0381,0.0381,0.0152,0.0159,0.0175,0.0193,0.0222,0.0281,0.0325,0.037,0.0378,0.0401,0.0425,0.0479,0.0498,0.0504,0.0502,0.0431,0.0431,0.0431,0.0431,0.015,0.0157,0.0186,0.0199,0.0249,0.0295,0.0377,0.0398,0.0475,0.0454,0.0482,0.0476,0.0513,0.0508,0.0432,0.0432,0.0432,0.0432,0.0432,0.0142,0.0148,0.0155,0.0188,0.0243,0.0304,0.038,0.0437,0.0487,0.0522,0.056,0.056,0.0552,0.054,0.054,0.0541,0.0541,0.0541,0.0541,0.0131,0.014,0.0151,0.0183,0.0213,0.0275,0.0383,0.0449,0.0551,0.0588,0.0589,0.0576,0.0513,0.0504,0.0545,0.0544,0.0544,0.0543,0.0543,0.0127,0.0125,0.0139,0.0158,0.0221,0.0275,0.0364,0.0516,0.0597,0.0659,0.0676,0.0636,0.0641,0.0635,0.063,0.0701,0.0701,0.0701,0.0701,0.0127,0.0126,0.015,0.0177,0.0223,0.0283,0.0389,0.0528,0.0681,0.0741,0.074,0.0711,0.0705,0.0711,0.0704,0.0699,0.0786,0.0786,0.0786,0.0141,0.0143,0.0164,0.0181,0.0229,0.029,0.0386,0.0503,0.0705,0.0787,0.0733,0.0729,0.0681,0.0671,0.0674,0.0664,0.0652,0,0]}],[{"header":{"parameterUnit":"m.s-1","parameterCategory":2,"la1":30.2992,"la2":30.254,"lo1":-89.0895,"lo2":-89.0443,"dy":0.0025,"dx":0.0025,"nx":19,"ny":19,"refTime":"2026-05-22T09:00:00:Z","depth":"2","parameterNumber":2,"parameterNumberName":"U-component_of_CURRENTS"},"data":[0,0,0,0.0794,0.0794,0.0806,0.0806,0.0785,0.0785,0,0,0,0,0,0,0,0,0,0,0,0.0811,0.0811,0.0794,0.0794,0.0806,0.0806,0.0785,0.0785,0,0,0,0,0,0,0,0,0,0,0,0.0811,0.0811,0.0812,0.0794,0.0806,0.0806,0.0785,0.0788,0,0,0,0,0,0,0,0,0,0,0.0781,0.0812,0.0811,0.0812,0.0794,0.0806,0.0806,0.0788,0.0788,0.0766,0,0.0779,0,0.0766,0.0782,0.0781,0,0,0,0.0804,0.0813,0.0797,0.0812,0.0794,0.0806,0.0803,0.0788,0.0787,0.0765,0.0779,0.0778,0.0766,0.0781,0.0781,0.0811,0.0812,0,0,0.0803,0.0827,0.0798,0.0797,0.081,0.0803,0.0804,0.0788,0.0803,0.0779,0.0777,0.0766,0.0781,0.0781,0.0811,0.0811,0,0,0,0.0794,0.0827,0.0813,0.0798,0.0795,0.0803,0.0804,0.0805,0.0795,0.0776,0.0765,0.0781,0.078,0.081,0.0811,0.0846,0,0,0,0.0795,0.082,0.0813,0.0829,0.0796,0.0807,0.0821,0.0797,0.0794,0.0766,0.0781,0.078,0.0809,0.081,0.0843,0.081,0,0,0,0.0808,0.0821,0.0823,0.083,0.0826,0.0807,0.0798,0.0797,0.0786,0.0781,0.078,0.0808,0.081,0.0841,0.0808,0.0811,0,0,0,0.083,0.0813,0.0825,0.0803,0.0826,0.0794,0.0798,0.0806,0.0807,0.0781,0.0809,0.0811,0.084,0.0807,0.081,0.0695,0.0691,0,0,0.0804,0.0812,0.0791,0.08,0.0767,0.0792,0.079,0.0814,0.0825,0.0811,0.0812,0.0844,0.0808,0.0811,0.079,0.0782,0,0,0,0.0778,0.0774,0.0764,0.0758,0.0742,0.0769,0.0789,0.082,0.0873,0.0831,0.0868,0.0843,0.0844,0.0774,0.0769,0.0818,0.0818,0.0818,0.0818,0.0779,0.076,0.0739,0.0728,0.0727,0.0767,0.0797,0.085,0.0865,0.0926,0.0892,0.0938,0.0867,0.0861,0.094,0.094,0.094,0.094,0.094,0.0738,0.0728,0.0732,0.0718,0.0751,0.0776,0.0816,0.087,0.092,0.0944,0.0946,0.0838,0.0857,0.0944,0.0943,0.0943,0.0942,0.0942,0.0942,0.0751,0.0743,0.0755,0.0754,0.0784,0.0807,0.0816,0.0868,0.0928,0.0943,0.087,0.0868,0.0917,0.0967,0.0967,0.0967,0.0967,0.0967,0.0967,0.0768,0.0766,0.079,0.0788,0.0803,0.0813,0.0829,0.0833,0.0842,0.0863,0.0863,0.0946,0.0945,0.0918,0.0965,0.0966,0.0966,0.0966,0.0966,0.0768,0.0808,0.0809,0.0828,0.0819,0.077,0.0772,0.0721,0.0743,0.0724,0.0815,0.0819,0.0781,0.0784,0.0754,0.0755,0.0755,0.0755,0.0755,0.0794,0.0802,0.082,0.0819,0.0793,0.0744,0.0629,0.0501,0.051,0.0465,0.0477,0.045,0.0465,0.0408,0.0419,0.0381,0.0285,0.0284,0.0283,0.0798,0.08,0.0808,0.0813,0.0774,0.0697,0.0534,0.0244,0.0093,0.0262,0.037,0.0728,0.0723,0.0733,0.0673,0.0681,0.0631,0,0]},{"header":{"parameterUnit":"m.s-1","parameterCategory":2,"la1":30.2992,"la2":30.254,"lo1":-89.0895,"lo2":-89.0443,"dy":0.0025,"dx":0.0025,"nx":19,"ny":19,"refTime":"2026-05-22T09:00:00:Z","depth":"2","parameterNumber":3,"parameterNumberName":"V-component_of_CURRENTS"},"data":[0,0,0,-0.0417,-0.0417,-0.0395,-0.0395,-0.0366,-0.0366,0,0,0,0,0,0,0,0,0,0,0,-0.041,-0.041,-0.0417,-0.0417,-0.0395,-0.0395,-0.0366,-0.0366,0,0,0,0,0,0,0,0,0,0,0,-0.041,-0.041,-0.0411,-0.0417,-0.0396,-0.0395,-0.0366,-0.0376,0,0,0,0,0,0,0,0,0,0,-0.0395,-0.0399,-0.041,-0.0411,-0.0417,-0.0396,-0.0395,-0.0377,-0.0376,-0.0383,0,-0.0387,0,-0.0394,-0.0366,-0.0366,0,0,0,-0.0392,-0.0399,-0.0401,-0.0411,-0.0417,-0.0396,-0.0398,-0.0376,-0.0375,-0.0382,-0.0387,-0.0386,-0.0393,-0.0366,-0.0366,-0.029,-0.029,0,0,-0.0393,-0.0397,-0.0402,-0.0401,-0.0422,-0.0399,-0.0398,-0.0375,-0.0374,-0.0386,-0.0385,-0.0393,-0.0366,-0.0366,-0.0291,-0.029,0,0,0,-0.0414,-0.0398,-0.0399,-0.0402,-0.0408,-0.0399,-0.0397,-0.0374,-0.0377,-0.0385,-0.0393,-0.0366,-0.0366,-0.0292,-0.0291,-0.0204,0,0,0,-0.0413,-0.0412,-0.04,-0.04,-0.0409,-0.0393,-0.0397,-0.0378,-0.0376,-0.0393,-0.0366,-0.0366,-0.0293,-0.0291,-0.0208,-0.0195,0,0,0,-0.041,-0.0411,-0.0413,-0.0401,-0.0405,-0.0393,-0.0393,-0.0377,-0.0383,-0.0366,-0.0366,-0.0294,-0.0292,-0.0212,-0.02,-0.0142,0,0,0,-0.0407,-0.0419,-0.0413,-0.042,-0.0406,-0.0378,-0.0393,-0.0362,-0.0343,-0.0366,-0.0293,-0.0291,-0.0214,-0.0204,-0.0146,-0.014,-0.0122,0,0,-0.0423,-0.0421,-0.0422,-0.0418,-0.04,-0.0379,-0.0321,-0.0304,-0.0313,-0.0299,-0.0297,-0.0207,-0.0201,-0.0143,-0.0022,-0.0007,0,0,0,-0.0427,-0.0428,-0.0422,-0.0408,-0.0384,-0.032,-0.03,-0.0269,-0.0212,-0.0299,-0.0189,-0.0189,-0.0155,-0.0159,-0.0146,-0.0281,-0.0281,-0.0282,-0.0282,-0.0449,-0.0429,-0.0416,-0.0382,-0.0346,-0.0267,-0.0203,-0.0152,-0.0171,-0.0115,-0.0103,0.0015,0.0014,0.0023,-0.0075,-0.0075,-0.0074,-0.0074,-0.0074,-0.0458,-0.0441,-0.0396,-0.037,-0.0288,-0.0215,-0.0107,-0.0068,0.003,-0.0007,0.0023,-0.005,0.0041,-0.0067,-0.0068,-0.0069,-0.007,-0.007,-0.0071,-0.0459,-0.0444,-0.0419,-0.035,-0.0252,-0.0158,-0.0033,0.0041,0.0093,0.0146,0.014,0.0138,0.0049,0.0174,0.0175,0.0175,0.0175,0.0176,0.0176,-0.0457,-0.0435,-0.0387,-0.032,-0.0253,-0.0137,0.0021,0.0095,0.0191,0.0223,0.0223,0.0098,0.009,0.0064,0.0181,0.018,0.018,0.0179,0.0179,-0.0445,-0.0422,-0.036,-0.0304,-0.017,-0.0083,0.0036,0.0189,0.0274,0.0316,0.027,0.0266,0.0232,0.0221,0.0197,0.0343,0.0343,0.0343,0.0343,-0.0427,-0.0416,-0.0313,-0.0226,-0.0131,-0.0046,0.008,0.0194,0.0297,0.0338,0.0338,0.0285,0.0279,0.0243,0.0231,0.0205,0.0353,0.0353,0.0353,-0.0402,-0.0375,-0.0293,-0.0205,-0.0106,-0.0017,0.0067,0.0134,0.0263,0.0351,0.0312,0.0349,0.0268,0.0259,0.0196,0.0181,0.0136,0,0]}],[{"header":{"parameterUnit":"m.s-1","parameterCategory":2,"la1":30.2992,"la2":30.254,"lo1":-89.0895,"lo2":-89.0443,"dy":0.0025,"dx":0.0025,"nx":19,"ny":19,"refTime":"2026-05-22T09:00:00:Z","depth":"4","parameterNumber":2,"parameterNumberName":"U-component_of_CURRENTS"},"data":[0,0,0,-0.0532,-0.0533,-0.0581,-0.0581,-0.0576,-0.0576,0,0,0,0,0,0,0,0,0,0,0,-0.0511,-0.0511,-0.0532,-0.0533,-0.0581,-0.0581,-0.0576,-0.0576,0,0,0,0,0,0,0,0,0,0,0,-0.0511,-0.0511,-0.0512,-0.0533,-0.0581,-0.0581,-0.0576,-0.0555,0,0,0,0,0,0,0,0,0,0,-0.0516,-0.052,-0.0511,-0.0512,-0.0534,-0.0581,-0.0581,-0.0554,-0.0556,-0.0538,0,-0.055,0,-0.0567,-0.0575,-0.0574,0,0,0,-0.0526,-0.0519,-0.0522,-0.0512,-0.0534,-0.0581,-0.0557,-0.0556,-0.0557,-0.0539,-0.055,-0.0551,-0.0566,-0.0574,-0.0574,-0.056,-0.056,0,0,-0.0523,-0.0526,-0.0521,-0.0524,-0.0552,-0.0556,-0.0559,-0.0557,-0.0565,-0.055,-0.0551,-0.0566,-0.0574,-0.0574,-0.056,-0.056,0,0,0,-0.0521,-0.0524,-0.0529,-0.0523,-0.054,-0.0557,-0.0561,-0.0566,-0.0565,-0.0551,-0.0566,-0.0574,-0.0574,-0.056,-0.056,-0.0492,0,0,0,-0.0519,-0.0523,-0.0528,-0.0531,-0.054,-0.0566,-0.0569,-0.0565,-0.0566,-0.0566,-0.0574,-0.0574,-0.056,-0.056,-0.0494,-0.0488,0,0,0,-0.0508,-0.0522,-0.0527,-0.0531,-0.0555,-0.0566,-0.0566,-0.0566,-0.0575,-0.0574,-0.0574,-0.056,-0.056,-0.0496,-0.0491,-0.0555,0,0,0,-0.0508,-0.052,-0.0528,-0.0544,-0.0554,-0.058,-0.0567,-0.0569,-0.0567,-0.0574,-0.056,-0.056,-0.0496,-0.0492,-0.0556,-0.052,0,0,0,-0.0519,-0.0522,-0.0529,-0.0536,-0.0551,-0.0572,-0.0588,-0.0567,-0.056,-0.0555,-0.0555,-0.0493,-0.0491,-0.0556,-0.0517,0,0,0,0,-0.0529,-0.0534,-0.0538,-0.0554,-0.0571,-0.0579,-0.0588,-0.0579,-0.0539,-0.0563,-0.0511,-0.0513,-0.0556,-0.0535,-0.056,-0.056,-0.056,-0.056,-0.056,-0.0537,-0.0541,-0.0554,-0.0562,-0.0577,-0.0582,-0.0583,-0.0575,-0.0546,-0.0512,-0.0469,-0.049,-0.0462,-0.0472,-0.0472,-0.0472,-0.0471,-0.0471,-0.0471,-0.054,-0.0543,-0.0557,-0.0569,-0.0575,-0.0575,-0.0559,-0.0524,-0.0505,-0.0459,-0.0503,-0.0477,-0.0465,-0.0466,-0.0467,-0.0468,-0.0468,-0.0469,-0.0469,-0.0528,-0.0533,-0.0551,-0.0572,-0.055,-0.0528,-0.0525,-0.0461,-0.0459,-0.0456,-0.0472,-0.0486,-0.0483,-0.046,-0.046,-0.0461,-0.0461,-0.0461,-0.0461,-0.051,-0.053,-0.0549,-0.0555,-0.0547,-0.0511,-0.0471,-0.0517,-0.0493,-0.0426,-0.0431,-0.0489,-0.0489,-0.0486,-0.0465,-0.0464,-0.0464,-0.0463,-0.0463,-0.0487,-0.0507,-0.0534,-0.0549,-0.0555,-0.0527,-0.0515,-0.0536,-0.0588,-0.06,-0.0456,-0.0455,-0.0501,-0.0503,-0.0502,-0.0484,-0.0484,-0.0483,0,-0.0469,-0.048,-0.0524,-0.055,-0.0575,-0.054,-0.057,-0.0622,-0.0589,-0.0495,-0.0664,-0.05,-0.0497,-0.0553,-0.0554,-0.0555,0,0,0,-0.0452,-0.0473,-0.0493,-0.0541,-0.0561,-0.0556,-0.0573,-0.055,-0.0514,-0.0609,-0.0471,-0.0475,-0.0649,-0.0475,-0.0548,-0.0548,-0.0549,0,0]},{"header":{"parameterUnit":"m.s-1","parameterCategory":2,"la1":30.2992,"la2":30.254,"lo1":-89.0895,"lo2":-89.0443,"dy":0.0025,"dx":0.0025,"nx":19,"ny":19,"refTime":"2026-05-22T09:00:00:Z","depth":"4","parameterNumber":3,"parameterNumberName":"V-component_of_CURRENTS"},"data":[0,0,0,0.0421,0.0423,0.0543,0.0544,0.0683,0.0684,0,0,0,0,0,0,0,0,0,0,0,0.0375,0.0376,0.042,0.0423,0.0543,0.0544,0.0682,0.0684,0,0,0,0,0,0,0,0,0,0,0,0.0375,0.0376,0.0376,0.0423,0.0543,0.0544,0.0682,0.0599,0,0,0,0,0,0,0,0,0,0,0.0485,0.0451,0.0375,0.0376,0.0424,0.0543,0.0544,0.0595,0.0604,0.0619,0,0.0628,0,0.0654,0.0691,0.0692,0,0,0,0.0437,0.0443,0.0463,0.0376,0.0425,0.0543,0.0493,0.06,0.061,0.0631,0.063,0.0635,0.0656,0.0692,0.0693,0.0745,0.0745,0,0,0.0431,0.0414,0.0456,0.0469,0.0443,0.0489,0.0497,0.0606,0.0619,0.063,0.0639,0.0659,0.0693,0.0694,0.0745,0.0745,0,0,0,0.0402,0.0409,0.0427,0.0463,0.0483,0.0492,0.0501,0.0614,0.0616,0.0641,0.066,0.0693,0.0695,0.0746,0.0745,0.0688,0,0,0,0.0398,0.0392,0.0424,0.0418,0.0481,0.0555,0.0506,0.0608,0.0622,0.066,0.0693,0.0696,0.0746,0.0745,0.069,0.0679,0,0,0,0.0372,0.039,0.0396,0.0416,0.0461,0.0554,0.0564,0.0612,0.0633,0.0692,0.0696,0.0746,0.0745,0.0692,0.0682,0.0656,0,0,0,0.0362,0.0365,0.0396,0.0406,0.046,0.0511,0.0564,0.0644,0.0697,0.0694,0.0746,0.0745,0.0693,0.0684,0.0658,0.0544,0,0,0,0.0355,0.0364,0.0367,0.0397,0.0411,0.0496,0.0542,0.065,0.0684,0.0712,0.0714,0.0689,0.0682,0.0657,0.0507,0,0,0,0,0.0358,0.0361,0.0366,0.0391,0.0432,0.0493,0.0604,0.0625,0.0671,0.0708,0.0692,0.069,0.0675,0.0615,0.0742,0.0742,0.0742,0.0742,0.0742,0.0338,0.0352,0.0355,0.0388,0.0436,0.0516,0.0549,0.0602,0.065,0.0654,0.0644,0.059,0.0523,0.064,0.0639,0.0639,0.0639,0.0639,0.0639,0.032,0.0319,0.036,0.0392,0.0447,0.0523,0.0543,0.0568,0.0562,0.0598,0.0585,0.056,0.0633,0.0634,0.0635,0.0636,0.0636,0.0636,0.0637,0.0301,0.03,0.0345,0.0407,0.047,0.0543,0.0511,0.0519,0.0528,0.0501,0.045,0.0558,0.0561,0.0499,0.0499,0.0499,0.0498,0.0498,0.0498,0.027,0.0291,0.0338,0.0414,0.048,0.0514,0.0496,0.0438,0.0428,0.0384,0.0496,0.0544,0.0548,0.0554,0.0495,0.0496,0.0496,0.0497,0.0497,0.0222,0.0253,0.0309,0.0372,0.0458,0.0428,0.0446,0.0304,0.0245,0.0172,0.0315,0.0325,0.034,0.035,0.0349,0.0228,0.0226,0.0224,0,0.0188,0.0201,0.0274,0.0329,0.0338,0.0355,0.0218,0.0149,0.0127,0.0155,0.0216,0.0384,0.0389,0.0412,0.0418,0.042,0,0,0,0.0143,0.0178,0.0216,0.0281,0.0282,0.017,0.016,0.0101,0.021,0.0027,0.0182,0.0193,0.028,0.0487,0.0534,0.0539,0.0552,0,0]}]]